Monument Pass, CO

11:21 AM MDT on April 24, 2017 (GMT -0600)
Monument Pass

Weather History for KMNH - December, 2012

Change the Weather History Date:

Saturday, December 1, 2012

  Actual Average Record
Temperature  
Mean Temperature 44 °F -  
Max Temperature 60 °F - 60 °F (2012)
Min Temperature 28 °F - 9 °F (2015)
Degree Days  
Heating Degree Days 21    
Month to date heating degree days  
Cooling Degree Days 0    
Month to date cooling degree days  
Moisture  
Dew Point 18 °F    
Average Humidity 37    
Maximum Humidity 69    
Minimum Humidity 15    
Precipitation  
Precipitation 0.00 in - 0.00 in (2017)
Sea Level Pressure  
Sea Level Pressure 30.01 in    
Wind  
Wind Speed 7 mph (SW)    
Max Wind Speed 12 mph    
Max Gust Speed 17 mph    
Visibility 10 miles    
Events      
T = Trace of Precipitation, MM = Missing Value Source: NWS Daily Summary

Daily Weather History Graph

Daily Weather History Graph

Search for Another Location

Airport or City:

Trip Planner

Search our weather history database for the weather conditions in past years. The results will help you decide how hot, cold, wet, or windy it might be!

Date:

Astronomy

Dec. 01, 2012 Rise Set
Actual Time 6:59 AM MST 4:35 PM MST
Civil Twilight 6:29 AM MST 5:05 PM MST
Nautical Twilight 5:56 AM MST 5:38 PM MST
Astronomical Twilight 5:24 AM MST 6:11 PM MST
Moon 7:27 PM MST (12/1) 9:14 AM MST (12/1)
Length of Visible Light 10h 35m
Length of Day
9h 36m
Waning Gibbous, 91% of the Moon is Illuminated
Dec 1
Waning Gibbous
Dec 6
Last Quarter
Dec 13
New
Dec 19
First Quarter
Dec 28
Full

Hourly Weather History & Observations

Time (MST) Temp. Windchill Dew Point Humidity Pressure Visibility Wind Dir Wind Speed Gust Speed Precip Events Conditions
12:11 AM 46.4 °F 44.3 °F 19.4 °F 34% 29.91 in 10.0 mi SW 4.6 mph - N/A   Clear
12:31 AM 46.4 °F 41.9 °F 19.4 °F 34% 29.91 in 10.0 mi SW 9.2 mph - N/A   Clear
1:11 AM 44.6 °F 38.8 °F 19.4 °F 37% 29.90 in 10.0 mi SW 11.5 mph - N/A   Clear
2:10 AM 44.6 °F 39.2 °F 19.4 °F 37% 29.91 in 10.0 mi SW 10.4 mph - N/A   Clear
2:31 AM 44.6 °F 39.2 °F 21.2 °F 39% - 10.0 mi SW 10.4 mph - N/A   Clear
2:51 AM 39.2 °F 35.0 °F 21.2 °F 49% 29.92 in 10.0 mi WNW 5.8 mph - N/A   Clear
3:11 AM 35.6 °F - 21.2 °F 56% 29.91 in 10.0 mi Calm Calm - N/A   Clear
3:31 AM 35.6 °F 31.7 °F 19.4 °F 52% 29.93 in 10.0 mi West 4.6 mph - N/A   Clear
4:11 AM 37.4 °F 32.1 °F 19.4 °F 48% 29.94 in 10.0 mi West 6.9 mph - N/A   Clear
5:11 AM 35.6 °F 32.8 °F 19.4 °F 52% 29.95 in 10.0 mi SSW 3.5 mph - N/A   Clear
5:31 AM 32.0 °F 24.8 °F 19.4 °F 60% 29.95 in 10.0 mi SSW 8.1 mph - N/A   Clear
5:51 AM 35.6 °F 29.2 °F 21.2 °F 56% 29.97 in 10.0 mi SW 8.1 mph - N/A   Clear
6:11 AM 32.0 °F 25.6 °F 19.4 °F 60% 29.97 in 10.0 mi WSW 6.9 mph - N/A   Clear
6:31 AM 28.4 °F - 19.4 °F 69% 29.99 in 10.0 mi Calm Calm - N/A   Clear
7:11 AM 32.0 °F 28.7 °F 19.4 °F 60% 30.01 in 10.0 mi West 3.5 mph - N/A   Clear
7:31 AM 35.6 °F 29.2 °F 21.2 °F 56% 30.01 in 10.0 mi West 8.1 mph - N/A   Clear
7:50 AM 41.0 °F 36.4 °F 23.0 °F 49% 30.01 in 10.0 mi West 6.9 mph - N/A   Clear
8:10 AM 42.8 °F 39.3 °F 23.0 °F 46% 30.02 in 10.0 mi WSW 5.8 mph - N/A   Clear
8:31 AM 46.4 °F 44.3 °F 24.8 °F 43% 30.02 in 10.0 mi West 4.6 mph - N/A   Clear
8:50 AM 48.2 °F - 24.8 °F 40% 30.03 in 10.0 mi West 4.6 mph - N/A   Clear
9:10 AM 50.0 °F - 24.8 °F 37% 30.03 in 10.0 mi WSW 5.8 mph - N/A   Clear
9:31 AM 51.8 °F - 24.8 °F 35% 30.03 in 10.0 mi West 5.8 mph - N/A   Clear
9:51 AM 53.6 °F - 23.0 °F 30% 30.03 in 10.0 mi WNW 3.5 mph - N/A   Clear
10:10 AM 53.6 °F - 21.2 °F 28% 30.03 in 10.0 mi WSW 4.6 mph - N/A   Clear
10:30 AM 55.4 °F - 19.4 °F 25% 30.03 in 10.0 mi West 6.9 mph - N/A   Clear
11:11 AM 57.2 °F - 17.6 °F 21% 30.02 in 10.0 mi West 10.4 mph - N/A   Clear
11:31 AM 59.0 °F - 17.6 °F 20% 30.01 in 10.0 mi West 10.4 mph 17.3 mph N/A   Clear
11:51 AM 59.0 °F - 17.6 °F 20% 30.01 in 10.0 mi West 9.2 mph - N/A   Clear
12:11 PM 59.0 °F - 17.6 °F 20% 30.00 in 10.0 mi WSW 11.5 mph - N/A   Clear
12:31 PM 60.8 °F - 15.8 °F 17% 30.00 in 10.0 mi West 8.1 mph - N/A   Clear
12:51 PM 60.8 °F - 14.0 °F 16% 29.99 in 10.0 mi West 11.5 mph - N/A   Clear
1:10 PM 60.8 °F - 14.0 °F 16% 29.99 in 10.0 mi WSW 9.2 mph - N/A   Clear
1:31 PM 60.8 °F - 14.0 °F 16% 29.99 in 10.0 mi WSW 3.5 mph - N/A   Clear
1:50 PM 60.8 °F - 14.0 °F 16% 29.99 in 10.0 mi West 8.1 mph 17.3 mph N/A   Clear
2:11 PM 60.8 °F - 12.2 °F 15% 29.99 in 10.0 mi WSW 10.4 mph - N/A   Clear
2:31 PM 59.0 °F - 12.2 °F 16% 30.00 in 10.0 mi SW 8.1 mph - N/A   Clear
2:51 PM 60.8 °F - 12.2 °F 15% 30.00 in 10.0 mi WSW 9.2 mph - N/A   Clear
3:11 PM 60.8 °F - 12.2 °F 15% 30.00 in 10.0 mi SSW 6.9 mph - N/A   Clear
3:30 PM 59.0 °F - 12.2 °F 16% 30.01 in 10.0 mi Calm Calm - N/A   Clear
3:50 PM 53.6 °F - 17.6 °F 24% 30.01 in 10.0 mi SSE 10.4 mph - N/A   Clear
4:11 PM 50.0 °F - 19.4 °F 30% 30.02 in 10.0 mi SSE 9.2 mph - N/A   Clear
4:51 PM 44.6 °F 40.7 °F 17.6 °F 34% 30.03 in 10.0 mi SSE 6.9 mph - N/A   Clear
5:11 PM 41.0 °F 37.1 °F 17.6 °F 39% 30.04 in 7.0 mi WSW 5.8 mph - N/A   Clear
5:31 PM 44.6 °F 42.2 °F 17.6 °F 34% 30.04 in 10.0 mi SW 4.6 mph - N/A   Clear
5:51 PM 41.0 °F 39.0 °F 17.6 °F 39% 30.05 in 10.0 mi NNE 3.5 mph - N/A   Clear
6:11 PM 44.6 °F 42.2 °F 17.6 °F 34% 30.05 in 10.0 mi SW 4.6 mph - N/A   Clear
6:31 PM 41.0 °F 37.1 °F 17.6 °F 39% 30.05 in 10.0 mi SW 5.8 mph - N/A   Clear
6:51 PM 44.6 °F 40.7 °F 17.6 °F 34% 30.06 in 10.0 mi SSW 6.9 mph - N/A   Clear
7:11 PM 42.8 °F 36.6 °F 17.6 °F 36% 30.06 in 10.0 mi South 11.5 mph - N/A   Clear
7:31 PM 44.6 °F 39.7 °F 19.4 °F 37% 30.07 in 10.0 mi SSW 9.2 mph - N/A   Clear
7:51 PM 41.0 °F 35.2 °F 19.4 °F 42% 30.07 in 10.0 mi South 9.2 mph - N/A   Clear
8:11 PM 41.0 °F 34.7 °F 19.4 °F 42% 30.08 in 10.0 mi South 10.4 mph - N/A   Clear
8:31 PM 41.0 °F 35.8 °F 19.4 °F 42% 30.07 in 10.0 mi South 8.1 mph - N/A   Clear
8:51 PM 37.4 °F 32.1 °F 19.4 °F 48% 30.08 in 10.0 mi SSW 6.9 mph - N/A   Clear
9:11 PM 37.4 °F 30.8 °F 19.4 °F 48% 30.07 in 10.0 mi SSW 9.2 mph - N/A   Clear
9:31 PM 37.4 °F 30.8 °F 19.4 °F 48% 30.07 in 10.0 mi SSW 9.2 mph - N/A   Clear
9:51 PM 37.4 °F 29.8 °F 19.4 °F 48% 30.07 in 10.0 mi SW 11.5 mph - N/A   Clear
10:11 PM 37.4 °F 30.3 °F 19.4 °F 48% 30.07 in 10.0 mi SW 10.4 mph - N/A   Clear
10:31 PM 35.6 °F 28.0 °F 17.6 °F 48% 30.07 in 10.0 mi WSW 10.4 mph - N/A   Clear
10:50 PM 37.4 °F 31.4 °F 14.0 °F 38% 30.07 in 10.0 mi SW 8.1 mph - N/A   Clear
11:11 PM 37.4 °F 30.8 °F 14.0 °F 38% 30.07 in 10.0 mi SW 9.2 mph - N/A   Clear
11:31 PM 41.0 °F 35.2 °F 14.0 °F 33% 30.07 in 10.0 mi SW 9.2 mph - N/A   Clear
11:51 PM 42.8 °F 38.6 °F 12.2 °F 29% 30.07 in 10.0 mi SW 6.9 mph - N/A   Clear